Online Auction of Welding Booths, Genie Lift, Restaurant Equipment, Dining Furniture, and More

Lot #0100Q: Miller Mark VIII-2 Multiple Operator Constant Current DC Arc Welding Power Source

Bidding is closed.
High Bid:$850.00
NA
Bidding Ended: Thu, May 2  10:15:57 am PT
High Bidder: likwid8r
Bid Increment: $10.00
Starting Bid: $5.00
Item has been viewed 531 times.

Miller Mark VIII-2 Multiple Operator Constant Current DC Arc Welding Power Source

  • Model: VIII-2
  • Serial: JG0074247
  • Volts: 240/460
  • Amps: 170/85
  • 3 Phase
  • 60 Hz
  • 48.6 KW
  • 8 Channels
  • Dimensions: 6’L x 40”W x 70”H
Bid Date Bid Amount Bidder
May 2, 2019 - 10:13:57 AM $850.00 ilikwid8r
May 2, 2019 - 10:13:58 AM $850.00 inaparusty
May 2, 2019 - 10:12:56 AM $810.00 ilikwid8r
May 2, 2019 - 10:12:42 AM $800.00 inaparusty
May 2, 2019 - 10:12:43 AM $800.00 ilikwid8r
May 2, 2019 - 10:11:04 AM $720.00 inaparusty
May 2, 2019 - 10:10:49 AM $710.00 ilikwid8r
May 2, 2019 - 10:10:49 AM $700.00 inaparusty
May 2, 2019 - 10:10:37 AM $660.00 ilikwid8r
May 2, 2019 - 10:10:17 AM $650.00 inaparusty
May 2, 2019 - 10:10:18 AM $650.00 ilikwid8r
May 2, 2019 - 10:09:48 AM $610.00 inaparusty
May 2, 2019 - 10:09:28 AM $600.00 ilikwid8r
May 2, 2019 - 10:09:29 AM $600.00 inaparusty
May 2, 2019 - 10:09:00 AM $560.00 ilikwid8r
May 2, 2019 - 10:09:00 AM $550.00 inaparusty
May 2, 2019 - 9:53:56 AM $510.00 inaparusty
May 2, 2019 - 9:53:56 AM $500.00 ilikwid8r
May 2, 2019 - 9:53:43 AM $430.00 ilikwid8r
May 2, 2019 - 9:53:43 AM $420.00 inaparusty
May 2, 2019 - 9:52:18 AM $410.00 ilikwid8r
May 2, 2019 - 9:52:18 AM $400.00 inaparusty
May 2, 2019 - 9:26:12 AM $370.00 ilikwid8r
May 2, 2019 - 9:08:58 AM $360.00 inaparusty
May 2, 2019 - 9:08:53 AM $350.00 iLhewes
May 2, 2019 - 9:08:53 AM $340.00 inaparusty
May 2, 2019 - 9:08:50 AM $330.00 iLhewes
May 2, 2019 - 9:08:50 AM $320.00 inaparusty
May 2, 2019 - 8:22:03 AM $310.00 iLhewes
May 2, 2019 - 8:21:57 AM $300.00 ilikwid8r
May 2, 2019 - 8:21:58 AM $300.00 iLhewes
May 2, 2019 - 8:21:51 AM $260.00 ilikwid8r
May 2, 2019 - 8:21:51 AM $250.00 iLhewes
May 2, 2019 - 8:21:45 AM $210.00 ilikwid8r
May 2, 2019 - 8:21:45 AM $200.00 iLhewes
May 2, 2019 - 8:21:40 AM $160.00 ilikwid8r
May 2, 2019 - 8:21:40 AM $150.00 iLhewes
May 2, 2019 - 8:21:33 AM $105.00 ilikwid8r
May 2, 2019 - 8:21:33 AM $100.00 iLhewes
May 2, 2019 - 8:21:25 AM $80.00 ilikwid8r
May 2, 2019 - 8:21:25 AM $75.00 iLhewes
May 2, 2019 - 8:21:18 AM $55.00 ilikwid8r
May 2, 2019 - 8:21:18 AM $50.00 iLhewes
May 1, 2019 - 12:10:13 PM $30.00 ilikwid8r
May 1, 2019 - 12:09:48 PM $25.00 iLhewes
May 1, 2019 - 12:09:49 PM $25.00 ilikwid8r
May 1, 2019 - 12:53:14 AM $5.00 iLhewes
Click on any picture to see a larger image.